Weather History for Cloquet, MN

Change the Weather History Date:

Friday, January 25, 2013

  Actual Average Record
Temperature  
Mean Temperature 8 °F -  
Max Temperature 14 °F 18 °F 46 °F (2002)
Min Temperature 1 °F 3 °F -16 °F (2009)
Degree Days  
Heating Degree Days 58    
Moisture  
Dew Point 0 °F    
Average Humidity 70    
Maximum Humidity 85    
Minimum Humidity 57    
Precipitation  
Precipitation 0.00 in - - ()
Sea Level Pressure  
Sea Level Pressure 29.99 in    
Wind  
Wind Speed 8 mph (West)    
Max Wind Speed 16 mph    
Max Gust Speed 24 mph    
Visibility 7 miles    
Events Snow    
Averages and records for this station are not official NWS values.
T = Trace of Precipitation, MM = Missing Value Source: NWS Daily Summary

Daily Weather History Graph

Daily Weather History Graph

Search for Another Location

Airport:

Trip Planner

Search our weather history database for the weather conditions in past years. The results will help you decide how hot, cold, wet, or windy it might be!

Date:

Astronomy

Jan. 25, 2013 Rise Set
Actual Time 7:41 AM CST 5:03 PM CST
Civil Twilight 7:08 AM CST 5:36 PM CST
Nautical Twilight 6:31 AM CST 6:13 PM CST
Astronomical Twilight 5:56 AM CST 6:49 PM CST
Moon 4:01 PM CST (1/25) 6:22 AM CST (1/25)
Length of Visible Light 10h 27m
Length of Day
9h 21m
Waxing Gibbous, 98% of the Moon is Illuminated
Jan 25
Waxing Gibbous
Jan 26
Full
Feb 3
Last Quarter
Feb 10
New
Feb 17
First Quarter

Hourly Weather History & Observations

Time (CST) Temp. Windchill Dew Point Humidity Pressure Visibility Wind Dir Wind Speed Gust Speed Precip Events Conditions
12:15 AM 5.0 °F -6.9 °F -4.0 °F 66% 30.09 in 10.0 mi South 6.9 mph - N/A   Overcast
12:36 AM 6.8 °F -3.5 °F -4.0 °F 61% 30.07 in 7.0 mi South 5.8 mph - N/A Snow Light Snow
12:56 AM 6.8 °F -5.9 °F -4.0 °F 61% 30.06 in 10.0 mi South 8.1 mph - N/A Snow Light Snow
1:15 AM 6.8 °F -5.9 °F -2.2 °F 67% 30.03 in 4.0 mi SSE 8.1 mph - N/A Snow Light Snow
1:36 AM 6.8 °F -3.5 °F -2.2 °F 67% 30.03 in 4.0 mi SSE 5.8 mph - N/A Snow Light Snow
1:56 AM 6.8 °F -4.8 °F -0.4 °F 72% 30.02 in 4.0 mi South 6.9 mph - N/A Snow Light Snow
2:16 AM 6.8 °F -4.8 °F -0.4 °F 72% 30.00 in 1.5 mi SSE 6.9 mph - N/A Snow Light Snow
2:36 AM 6.8 °F -4.8 °F -0.4 °F 72% 29.99 in 7.0 mi South 6.9 mph - N/A Snow Light Snow
2:56 AM 6.8 °F -5.9 °F -0.4 °F 72% 29.97 in 7.0 mi SSE 8.1 mph - N/A Snow Light Snow
3:16 AM 6.8 °F -3.5 °F 1.4 °F 79% 29.95 in 7.0 mi South 5.8 mph - N/A   Overcast
3:36 AM 6.8 °F -2.0 °F 1.4 °F 79% 29.93 in 7.0 mi South 4.6 mph - N/A Snow Light Snow
3:55 AM 6.8 °F -2.0 °F 1.4 °F 79% 29.93 in 10.0 mi South 4.6 mph - N/A Snow Light Snow
4:16 AM 8.6 °F -1.3 °F 1.4 °F 73% 29.91 in 7.0 mi South 5.8 mph - N/A Snow Light Snow
4:36 AM 8.6 °F -1.3 °F 1.4 °F 73% 29.90 in 3.0 mi South 5.8 mph - N/A Snow Light Snow
4:55 AM 8.6 °F -1.3 °F 1.4 °F 73% 29.89 in 2.5 mi South 5.8 mph - N/A Snow Light Snow
5:16 AM 8.6 °F 0.1 °F 3.2 °F 79% 29.87 in 1.8 mi South 4.6 mph - N/A Snow Light Snow
5:36 AM 8.6 °F 0.1 °F 3.2 °F 79% 29.86 in 3.0 mi South 4.6 mph - N/A Snow Light Snow
5:55 AM 8.6 °F 0.1 °F 3.2 °F 79% 29.85 in 1.2 mi South 4.6 mph - N/A Snow Light Snow
6:16 AM 8.6 °F 0.1 °F 3.2 °F 79% 29.84 in 7.0 mi South 4.6 mph - N/A Snow Light Snow
6:36 AM 8.6 °F -1.3 °F 3.2 °F 79% 29.83 in 4.0 mi South 5.8 mph - N/A Snow Light Snow
6:56 AM 8.6 °F 0.1 °F 3.2 °F 79% 29.83 in 2.5 mi South 4.6 mph - N/A Snow Light Snow
7:36 AM 10.4 °F 0.8 °F 3.2 °F 73% 29.82 in 2.0 mi South 5.8 mph - N/A Snow Light Snow
7:56 AM 10.4 °F 4.0 °F 5.0 °F 79% 29.82 in 1.8 mi SSW 3.5 mph - N/A Snow Light Snow
8:16 AM 10.4 °F 2.2 °F 5.0 °F 79% 29.82 in 1.8 mi SSW 4.6 mph - N/A Snow Light Snow
8:36 AM 10.4 °F 2.2 °F 5.0 °F 79% 29.83 in 1.5 mi SW 4.6 mph - N/A Snow Light Snow
8:55 AM 10.4 °F - 5.0 °F 79% 29.84 in 1.2 mi Calm Calm - N/A Snow Light Snow
9:16 AM 10.4 °F - 5.0 °F 79% 29.84 in 1.2 mi Calm Calm - N/A Snow Light Snow
9:36 AM 10.4 °F -0.4 °F 6.8 °F 85% 29.84 in 1.5 mi West 6.9 mph - N/A Snow Light Snow
9:56 AM 12.2 °F -0.2 °F 6.8 °F 79% 29.85 in 3.0 mi West 9.2 mph - N/A Snow Light Snow
10:16 AM 12.2 °F -2.5 °F 6.8 °F 79% 29.86 in 5.0 mi WNW 12.7 mph 16.1 mph N/A Snow Light Snow
10:36 AM 12.2 °F -2.5 °F 5.0 °F 73% 29.87 in 5.0 mi WNW 12.7 mph 24.2 mph N/A Snow Light Snow
10:56 AM 12.2 °F -4.3 °F 5.0 °F 73% 29.87 in 10.0 mi WNW 16.1 mph 20.7 mph N/A   Overcast
11:16 AM 14.0 °F -0.8 °F 3.2 °F 62% 29.88 in 10.0 mi NW 13.8 mph 18.4 mph N/A   Mostly Cloudy
11:36 AM 12.2 °F -3.1 °F 3.2 °F 67% 29.89 in 10.0 mi NW 13.8 mph 17.3 mph N/A   Mostly Cloudy
11:56 AM 14.0 °F -0.8 °F 3.2 °F 62% 29.90 in 10.0 mi NW 13.8 mph 18.4 mph N/A   Mostly Cloudy
12:16 PM 12.2 °F -2.5 °F 1.4 °F 62% 29.90 in 10.0 mi NNW 12.7 mph 20.7 mph N/A   Overcast
12:36 PM 12.2 °F -3.1 °F 3.2 °F 67% 29.91 in 7.0 mi NW 13.8 mph - N/A Snow Light Snow
1:16 PM 12.2 °F -3.1 °F 3.2 °F 67% 29.93 in 7.0 mi NNW 13.8 mph 19.6 mph N/A   Overcast
1:36 PM 12.2 °F -1.8 °F 3.2 °F 67% 29.93 in 4.0 mi NNW 11.5 mph - N/A Snow Light Snow
1:56 PM 14.0 °F -0.2 °F 1.4 °F 57% 29.95 in 10.0 mi NW 12.7 mph 18.4 mph N/A   Overcast
2:16 PM 14.0 °F -2.0 °F 1.4 °F 57% 29.96 in 7.0 mi NW 16.1 mph 19.6 mph N/A   Overcast
2:36 PM 12.2 °F -2.5 °F 1.4 °F 62% 29.97 in 10.0 mi NW 12.7 mph 19.6 mph N/A   Overcast
2:56 PM 12.2 °F -0.2 °F 3.2 °F 67% 29.98 in 4.0 mi NW 9.2 mph 16.1 mph N/A Snow Light Snow
3:16 PM 12.2 °F -1.0 °F 3.2 °F 67% 29.99 in 5.0 mi WNW 10.4 mph - N/A Snow Light Snow
3:36 PM 12.2 °F -2.5 °F 1.4 °F 62% 30.00 in 10.0 mi NW 12.7 mph 20.7 mph N/A   Overcast
3:56 PM 12.2 °F -0.2 °F 3.2 °F 67% 30.01 in 7.0 mi NW 9.2 mph 16.1 mph N/A   Overcast
4:16 PM 10.4 °F -6.0 °F -0.4 °F 62% 30.03 in 10.0 mi WNW 15.0 mph 19.6 mph N/A   Mostly Cloudy
4:36 PM 10.4 °F -4.8 °F -2.2 °F 57% 30.04 in 10.0 mi NW 12.7 mph 19.6 mph N/A   Mostly Cloudy
4:56 PM 10.4 °F -3.3 °F -2.2 °F 57% 30.06 in 10.0 mi WNW 10.4 mph 19.6 mph N/A   Mostly Cloudy
5:16 PM 10.4 °F -2.4 °F -2.2 °F 57% 30.07 in 10.0 mi NW 9.2 mph 18.4 mph N/A   Mostly Cloudy
5:36 PM 8.6 °F -4.7 °F -2.2 °F 62% 30.07 in 10.0 mi NW 9.2 mph - N/A   Clear
5:56 PM 8.6 °F -3.7 °F -2.2 °F 62% 30.08 in 10.0 mi NNW 8.1 mph - N/A   Scattered Clouds
6:15 PM 8.6 °F -4.7 °F -2.2 °F 62% 30.09 in 10.0 mi NW 9.2 mph - N/A   Clear
6:36 PM 6.8 °F -5.9 °F -2.2 °F 67% 30.11 in 10.0 mi NW 8.1 mph - N/A   Clear
6:56 PM 6.8 °F -6.9 °F -2.2 °F 67% 30.12 in 10.0 mi NW 9.2 mph - N/A   Mostly Cloudy
7:15 PM 6.8 °F -6.9 °F -2.2 °F 67% 30.13 in 10.0 mi NW 9.2 mph - N/A   Mostly Cloudy
7:36 PM 6.8 °F -6.9 °F -2.2 °F 67% 30.14 in 10.0 mi WNW 9.2 mph - N/A   Mostly Cloudy
7:56 PM 6.8 °F -7.8 °F -2.2 °F 67% 30.14 in 10.0 mi NW 10.4 mph - N/A   Mostly Cloudy
8:15 PM 5.0 °F -9.1 °F -2.2 °F 72% 30.14 in 10.0 mi NW 9.2 mph 16.1 mph N/A   Overcast
8:36 PM 5.0 °F -8.1 °F -2.2 °F 72% 30.14 in 10.0 mi NW 8.1 mph - N/A   Scattered Clouds
8:56 PM 3.2 °F -11.3 °F -2.2 °F 78% 30.15 in 10.0 mi NW 9.2 mph - N/A   Clear
9:16 PM 3.2 °F -10.3 °F -4.0 °F 72% 30.15 in 10.0 mi NW 8.1 mph - N/A   Clear
9:36 PM 3.2 °F -9.1 °F -4.0 °F 72% 30.15 in 10.0 mi NW 6.9 mph - N/A   Clear
9:56 PM 1.4 °F -13.5 °F -4.0 °F 78% 30.16 in 10.0 mi WNW 9.2 mph - N/A   Clear
10:16 PM 1.4 °F -16.1 °F -4.0 °F 78% 30.16 in 10.0 mi NW 12.7 mph - N/A   Clear
10:36 PM 1.4 °F -14.5 °F -5.8 °F 72% 30.17 in 10.0 mi NW 10.4 mph - N/A   Clear
10:56 PM 1.4 °F -11.3 °F -5.8 °F 72% 30.18 in 10.0 mi NNW 6.9 mph - N/A   Clear
11:15 PM 1.4 °F -12.5 °F -5.8 °F 72% 30.19 in 10.0 mi NNW 8.1 mph - N/A   Clear
11:36 PM 1.4 °F -14.5 °F -5.8 °F 72% 30.21 in 10.0 mi NNW 10.4 mph - N/A   Clear
11:56 PM 1.4 °F -11.3 °F -5.8 °F 72% 30.22 in 10.0 mi WNW 6.9 mph - N/A   Clear